Regional Weather Roundup
Issued by NWS

Home | Current Version | Previous Version | Text Only | Print | Product List | Glossary On
Versions: 1 2 3 4 5 6 7 8 9 10 11 12 13 14 15 16 17 18 19 20 21 22 23 24 25 26 27 28 29 30 31 32 33 34 35 36 37 38 39 40 41 42 43 44 45 46 47 48 49 50
000
ASUS44 KBMX 280510
RWRAL

ALABAMA REGIONAL WEATHER ROUNDUP
NATIONAL WEATHER SERVICE BIRMINGHAM AL
1200 AM CDT SUN MAY 28 2017

NOTE: "FAIR" INDICATES FEW OR NO CLOUDS BELOW 12,000 FEET
WITH NO SIGNIFICANT WEATHER AND/OR OBSTRUCTIONS TO VISIBILITY.

THE REMARK "TC" DENOTES TEMPERATURE IN DEGREES CELSIUS.

ALZ001>011-014-016>018-020-280600-
NORTH ALABAMA

CITY           SKY/WX    TMP DP  RH WIND       PRES   REMARKS
MUSCLE SHOALS  TSTM      67  63  87 N13       29.92F
HUNTSVILLE     LGT RAIN  67  66  97 E6        29.95F
DECATUR        HVY RAIN  66  64  93 E8        29.95F
HALEYVILLE     CLOUDY    75  72  90 S5        29.93S
GADSDEN        CLOUDY    75  72  90 CALM      29.95F
$$

ALZ012-013-022-023-030>036-040>044-280600-
WEST CENTRAL ALABAMA

CITY           SKY/WX    TMP DP  RH WIND       PRES   REMARKS
TUSCALOOSA     CLOUDY    77  72  84 S5        29.90F
$$

ALZ015-024>027-033>036-040>044-280600-
CENTRAL ALABAMA

CITY           SKY/WX    TMP DP  RH WIND       PRES   REMARKS
BIRMINGHAM     CLOUDY    79  71  76 S5        29.96R
MONTGOMERY     PTCLDY    78  68  71 S7        29.94R
SHELBY CO ARPT PTCLDY    76  72  87 S5        29.93F
MAXWELL AFB    PTCLDY    76  70  82 S3        29.93R
GREENVILLE     FAIR      75  70  84 SW6       29.94F
$$

ALZ019-021-028-029-037-038-045>048-280600-
EAST CENTRAL ALABAMA

CITY           SKY/WX    TMP DP  RH WIND       PRES   REMARKS
ANNISTON       CLOUDY    73  71  93 CALM      29.95F
ALEXANDER CITY PTCLDY    70  69  96 CALM      29.97R
AUBURN         CLOUDY    73  69  87 CALM      29.98S
$$

ALZ051>064-280600-
SOUTHWEST ALABAMA

CITY           SKY/WX    TMP DP  RH WIND       PRES   REMARKS
MOBILE         PTCLDY    78  74  87 S9        29.96F
BROOKLEY FIELD MOCLDY    79  77  94 S7        29.96F
EVERGREEN      MOCLDY    74  71  91 S6        29.95F
$$

ALZ049-050-065>069-280600-
SOUTHEAST ALABAMA

CITY           SKY/WX    TMP DP  RH WIND       PRES   REMARKS
DOTHAN         CLEAR     74  73  97 SW7       30.01F
OZARK          MOCLDY    73  72  94 S7        29.97S
TROY           CLEAR     72  71  97 S5        29.96F
EUFAULA        FAIR      72  68  87 CALM      29.95S
$$



USA.gov is the U.S. government's official web portal to all federal, state and local government web resources and services.